NW Arkansas Airport, AR

4:08 PM CDT on July 23, 2017 (GMT -0500)
Northwest Arkansas Regional

Weather History for KXNA - October, 2014

Change the Weather History Date:

Saturday, October 18, 2014

  Actual Average (KVBT) Record (KVBT)
Temperature  
Mean Temperature 56 °F -  
Max Temperature 66 °F 68 °F 89 °F (1950)
Min Temperature 46 °F 43 °F 25 °F (1948)
Degree Days  
Heating Degree Days 9    
Growing Degree Days 6 (Base 50)    
Moisture  
Dew Point 46 °F    
Average Humidity 75    
Maximum Humidity 93    
Minimum Humidity 48    
Precipitation  
Precipitation 0.00 in - - ()
Sea Level Pressure  
Sea Level Pressure 30.14 in    
Wind  
Wind Speed 6 mph (North)    
Max Wind Speed 13 mph    
Max Gust Speed -    
Visibility 10 miles    
Events      
Averages and records for this station are not official NWS values.
T = Trace of Precipitation, MM = Missing Value Source: NWS Daily Summary

Daily Weather History Graph

Daily Weather History Graph

Search for Another Location

Airport or City:

Trip Planner

Search our weather history database for the weather conditions in past years. The results will help you decide how hot, cold, wet, or windy it might be!

Date:

Astronomy

Oct. 18, 2014 Rise Set
Actual Time 7:26 AM CDT 6:37 PM CDT
Civil Twilight 7:00 AM CDT 7:03 PM CDT
Nautical Twilight 6:31 AM CDT 7:33 PM CDT
Astronomical Twilight 6:01 AM CDT 8:02 PM CDT
Moon 2:34 AM CDT (10/18) 3:50 PM CDT (10/18)
Length of Visible Light 12h 02m
Length of Day
11h 10m
Waning Crescent, 24% of the Moon is Illuminated
Oct 18
Waning Crescent
Oct 23
New
Oct 30
First Quarter
Nov 6
Full
Nov 14
Last Quarter

Hourly Weather History & Observations

Time (CDT) Temp. Windchill Dew Point Humidity Pressure Visibility Wind Dir Wind Speed Gust Speed Precip Events Conditions
12:53 AM 52.0 °F - 48.0 °F 86% 30.05 in 10.0 mi North 4.6 mph - N/A   Clear
1:53 AM 51.1 °F - 48.0 °F 89% 30.05 in 10.0 mi North 4.6 mph - N/A   Clear
2:53 AM 51.1 °F - 48.0 °F 89% 30.06 in 10.0 mi NNW 3.5 mph - N/A   Clear
3:53 AM 50.0 °F - 46.9 °F 89% 30.07 in 10.0 mi NNW 5.8 mph - N/A   Clear
4:53 AM 50.0 °F - 46.0 °F 86% 30.09 in 10.0 mi North 6.9 mph - N/A   Clear
5:53 AM 50.0 °F - 46.9 °F 89% 30.11 in 10.0 mi North 5.8 mph - N/A   Clear
6:53 AM 48.0 °F - 45.0 °F 89% 30.12 in 10.0 mi North 4.6 mph - N/A   Clear
7:53 AM 46.9 °F - 45.0 °F 93% 30.14 in 10.0 mi North 5.8 mph - N/A   Clear
8:53 AM 52.0 °F - 46.9 °F 83% 30.17 in 10.0 mi NNE 8.1 mph - N/A   Clear
9:53 AM 54.0 °F - 46.0 °F 75% 30.19 in 10.0 mi NE 5.8 mph - N/A   Clear
10:53 AM 60.1 °F - 45.0 °F 57% 30.18 in 10.0 mi NNE 9.2 mph - N/A   Clear
11:53 AM 61.0 °F - 45.0 °F 56% 30.17 in 10.0 mi North 6.9 mph - N/A   Clear
12:53 PM 61.0 °F - 44.1 °F 54% 30.17 in 10.0 mi North 9.2 mph - N/A   Clear
1:53 PM 64.9 °F - 45.0 °F 48% 30.16 in 10.0 mi NNE 12.7 mph - N/A   Clear
2:53 PM 66.0 °F - 46.0 °F 48% 30.14 in 10.0 mi NNE 8.1 mph - N/A   Clear
3:53 PM 64.0 °F - 46.0 °F 52% 30.14 in 10.0 mi NNE 6.9 mph - N/A   Clear
4:53 PM 64.0 °F - 46.0 °F 52% 30.14 in 10.0 mi NNE 8.1 mph - N/A   Clear
5:53 PM 61.0 °F - 46.0 °F 58% 30.15 in 10.0 mi North 8.1 mph - N/A   Clear
6:53 PM 55.0 °F - 46.0 °F 72% 30.15 in 10.0 mi NNW 5.8 mph - N/A   Clear
7:53 PM 52.0 °F - 45.0 °F 77% 30.17 in 10.0 mi NNW 5.8 mph - N/A   Clear
8:53 PM 50.0 °F - 45.0 °F 83% 30.18 in 10.0 mi North 3.5 mph - N/A   Clear
9:53 PM 48.9 °F - 44.1 °F 83% 30.18 in 10.0 mi NE 4.6 mph - N/A   Clear
10:53 PM 48.0 °F - 45.0 °F 89% 30.18 in 10.0 mi North 4.6 mph - N/A   Clear
11:53 PM 46.0 °F 43.9 °F 44.1 °F 93% 30.18 in 10.0 mi North 4.6 mph - N/A   Clear